Tracking 30995 objects as of 7-Jul-2025
HD Live streaming from Space Station
objects crossing your sky now

TIANQI-12

Track TIANQI-12 now!
10-day predictions


NORAD ID: 48426
Int'l Code: 2021-039D
Perigee: 550.0 km
Apogee: 555.5 km
Inclination: 35.0 °
Period: 95.6 minutes
Semi major axis: 6923 km
RCS: Unknown
Launch date: May 6, 2021
Source: People's Republic of China (PRC)
Launch site: Xichang Space Center, China (XSC)
Your satellite tracking list
Your tracking list is empty




NASA's NSSDC Master Catalog

Two Line Element Set (TLE):
1 48426U 21039D   25187.75330066  .00004265  00000-0  28140-3 0  9997
2 48426  35.0015 293.6181 0003979 126.3011 233.8066 15.06920718228012
Source of the keplerian elements: AFSPC